Location: Unspecified
(34.7069°N, 0.0000°E)
Time: 04:06:13
(UTC+00:00)

NOAA 19 - Visible Passes

Search period start: 04 April 2026 00:00
Search period end: 14 April 2026 00:00
Orbit: 838 x 857 km, 99.0° (Epoch: 29 March)

Date Brightness Start Highest point End Pass type
(mag) Time Alt. Az. Time Alt. Az. Time Alt. Az.
4 Apr 7.0 20:45:55 19° NE 20:45:55 19° NE 20:48:07 10° NNE visible
4 Apr 7.7 22:27:51 17° NW 22:27:51 17° NW 22:29:12 10° NNW visible
5 Apr 7.1 20:32:56 16° NE 20:32:56 16° NE 20:34:53 10° NNE visible
5 Apr 7.4 22:14:51 21° NNW 22:14:51 21° NNW 22:16:40 10° NNW visible
6 Apr 7.2 20:19:54 13° NE 20:19:54 13° NE 20:21:25 10° NNE visible
6 Apr 7.2 22:01:50 25° NNW 22:01:50 25° NNW 22:04:02 10° NNW visible
7 Apr 7.4 20:06:53 10° NE 20:06:53 10° NE 20:07:13 10° NE visible
7 Apr 6.9 21:48:49 28° NNW 21:48:49 28° NNW 21:51:20 10° NNW visible
8 Apr 6.7 21:35:48 30° N 21:35:48 30° N 21:38:33 10° N visible
9 Apr 6.6 21:22:48 30° NNE 21:22:48 30° NNE 21:25:42 10° N visible
10 Apr 6.6 21:09:47 28° NNE 21:09:47 28° NNE 21:12:46 10° N visible
10 Apr 7.9 22:51:43 14° NW 22:51:43 14° NW 22:52:37 10° NW visible
11 Apr 6.7 20:56:46 25° NE 20:56:46 25° NE 20:59:46 10° N visible
11 Apr 7.6 22:38:42 18° NW 22:38:42 18° NW 22:40:18 10° NW visible
12 Apr 6.8 20:43:45 21° NE 20:43:45 21° NE 20:46:39 10° NNE visible
12 Apr 7.3 22:25:41 22° NW 22:25:41 22° NW 22:27:51 10° NNW visible
13 Apr 7.0 20:30:45 17° NE 20:30:45 17° NE 20:33:23 10° NNE visible
13 Apr 7.0 22:12:40 27° NW 22:12:40 27° NW 22:15:17 10° NNW visible
